Your browser is no longer supported. Please, upgrade your browser.
Filter
Ticker Owner Relationship Date Transaction Cost #Shares Value ($) #Shares Total SEC Form 4
SNXSTEFFENSEN DWIGHTDirectorJul 30Sale75.152,000150,2943,462Aug 03 09:48 AM
SNXLEUNG SIMONSVP, GC & Corporate SecretaryJul 30Sale75.101,00075,10024,045Aug 03 09:45 AM
UTHRROTHBLATT MARTINE AChairman & Co-CEOJul 30Sale161.144,115663,106240Aug 03 08:29 AM
UTHRROTHBLATT MARTINE AChairman & Co-CEOJul 30Sale161.675,547896,789240Aug 03 08:28 AM
PFECANGIALOSI LORETTA VSr. Vice President, ControllerJul 30Sale35.6524,704880,646174,611Aug 03 07:24 AM
PAHCBENDHEIM JACKPresident and CEOJul 31Sale39.588,807348,60763,193Jul 31 09:00 PM
PAHCBENDHEIM JACKPresident and CEOJul 30Sale38.016,000228,04272,000Jul 31 09:00 PM
PAHCBENDHEIM JACKPresident and CEOJul 29Sale37.016,000222,03678,000Jul 31 09:00 PM
PAHCBFI Co., LLC10% OwnerJul 31Sale39.588,807348,60763,193Jul 31 09:00 PM
PAHCBFI Co., LLC10% OwnerJul 30Sale38.016,000228,04272,000Jul 31 09:00 PM
PAHCBFI Co., LLC10% OwnerJul 29Sale37.016,000222,03678,000Jul 31 09:00 PM
TWTRWeil KevinSenior VP, ProductJul 29Sale31.653,659115,8211,019,474Jul 31 08:13 PM
CRMBenioff MarcChairman of the Board & CEOJul 31Sale73.5312,500919,18537,663,400Jul 31 08:13 PM
CRMBenioff MarcChairman of the Board & CEOJul 30Sale73.1012,500913,76437,664,900Jul 31 08:13 PM
BJRILEVIN GREGORYExec VP and CFOJul 29Sale51.2058,0002,969,6000Jul 31 07:52 PM
SFNCKIRKLAND CHRISTOPHER RDirectorJul 30Sale45.507,346334,243341,003Jul 31 07:31 PM
SFNCKIRKLAND CHRISTOPHER RDirectorJul 29Sale45.507,270330,785348,349Jul 31 07:31 PM
SFNCKIRKLAND CHRISTOPHER RDirectorJul 28Sale45.5010,000455,000355,619Jul 31 07:31 PM
ALGNLACOB JOSEPHDirectorJul 31Sale63.0520,0001,260,920495,488Jul 31 07:27 PM
CVTGhoorah Charles V.President of Sales & MarketingJul 29Sale26.874,000107,494969,375Jul 31 07:23 PM
BYDSMITH KEITHPresident & CEOJul 30Sale16.97100,0001,696,900822,162Jul 31 07:06 PM
BYDSMITH KEITHPresident & CEOJul 29Sale16.90100,0001,689,840822,162Jul 31 07:06 PM
NMBLMAHESHWARI UMESHChief Technology OfficerJul 30Sale27.043,900105,4401,112,000Jul 31 07:02 PM
NMBLMAHESHWARI UMESHChief Technology OfficerJul 30Sale27.0411,700316,3254,141,617Jul 31 07:02 PM
NMBLMAHESHWARI UMESHChief Technology OfficerJul 29Sale27.001002,7001,115,900Jul 31 07:02 PM
NMBLMAHESHWARI UMESHChief Technology OfficerJul 29Sale27.343008,2014,153,317Jul 31 07:02 PM
TCBKCARNEY CRAIG BEVP & Chief Credit OfficerJul 31Sale24.724,486110,91014,100Jul 31 06:50 PM
NTHOMPSON KEVIN BDirectorJul 29Sale96.205,516530,6537,044Jul 31 06:35 PM
CPSSPOWELL CURTIS KSr. Vice PresidentJul 31Sale6.162,50015,400223,180Jul 31 06:32 PM
CPSSPOWELL CURTIS KSr. Vice PresidentJul 30Sale6.124,13025,284225,680Jul 31 06:32 PM
CPSSPOWELL CURTIS KSr. Vice PresidentJul 29Sale6.132,51515,413229,810Jul 31 06:32 PM
HCSGMCCARTNEY DANIEL PDirectorJul 30Sale35.14180,0006,325,2002,563,992Jul 31 06:25 PM
EGHTMARTIN BRYAN RChief Technology OfficerJul 30Sale8.4997,200825,0341,067,910Jul 31 06:13 PM
SCHLDAVIES JOHN LDirectorJul 30Sale43.0314,388619,1581,252Jul 31 06:01 PM
SCHLDAVIES JOHN LDirectorJul 29Sale43.0060726,1015,449Jul 31 06:01 PM
TMKINGRAM ROBERT WDirectorJul 29Sale61.192,216135,59227,256Jul 31 05:57 PM
ICUIRIGGS STEVENVP OperationsJul 31Sale100.00171,7003,115Jul 31 05:57 PM
ABBVGONZALEZ RICHARD AChairman of the Board and CEOJul 29Sale71.2440,0212,851,264473,187Jul 31 05:41 PM
ABBVGONZALEZ RICHARD AChairman of the Board and CEOJul 29Sale71.0924,9791,775,656513,208Jul 31 05:41 PM
ILMNOSTADAN OMEADSr VP Product Dev & OperationsJul 29Sale217.933,510764,93445,673Jul 31 05:29 PM
FTNTXie MichaelVP, Engineering & CTOJul 30Sale47.32250,00011,829,0256,284,400Jul 31 05:12 PM
ULTISCHERR MARC DVice-Chairman & COOJul 30Sale183.5125,0004,587,842317,966Jul 31 05:08 PM
MSFTGATES WILLIAM H IIIDirectorJul 30Sale46.722,000,00093,431,338222,992,934Jul 31 05:06 PM
MSFTGATES WILLIAM H IIIDirectorJul 29Sale46.162,000,00092,316,856224,992,934Jul 31 05:06 PM
ULTIPhenicie John CSenior VP, Workplace SalesJul 30Sale183.438,0001,467,45554,344Jul 31 05:06 PM
ULTIWILBER RICKDirectorJul 30Sale184.305,000921,500120,933Jul 31 05:04 PM
ACCOKeller Robert JDirectorJul 31Sale8.1090,747735,05179,768Jul 31 05:04 PM
ACCOKeller Robert JDirectorJul 30Sale8.07202,6041,635,014170,515Jul 31 05:04 PM
ACCOKeller Robert JDirectorJul 29Sale8.16220,3861,798,350373,119Jul 31 05:04 PM
ULTIFITZPATRICK JAMES A JRDirectorJul 30Sale183.01983179,89913,767Jul 31 05:03 PM
KKRSorkin DavidGeneral Counsel and SecretaryJul 30Sale24.0827,233655,7710Jul 31 05:00 PM
CMGCrumpacker MarkChief Marketing OfficerJul 29Sale731.28998729,8173,000Jul 31 05:00 PM
MDLopez-Blanco VivianChief Financial OfficerJul 31Sale83.4510,000834,48273,433Jul 31 04:55 PM
MDGoldschmidt, MD Pascal JDirectorJul 31Sale82.361,500123,5349,379Jul 31 04:54 PM
GOOGBrin SergeyCo-FounderJul 31Sale644.5533,34021,489,3440Jul 31 04:42 PM
LMTDewar Patrick MExecutive Vice PresidentJul 29Sale209.0315,4533,230,1050Jul 31 04:38 PM
NTRSMORRISON WILLIAM LPresidentJul 30Sale77.1478,8826,085,336160,656Jul 31 04:33 PM
HOLXOberton Karleen MarieCorp. VP and ControllerJul 30Sale41.3615,000620,4003,450Jul 31 04:33 PM
KNLPardo Benjamin AE.V.P.-Director of DesignJul 29Sale23.8210,921260,13844,161Jul 31 04:31 PM
STJSTARKS DANIEL JChairman, CEO & PresidentJul 29Sale73.93100,0007,393,0006,112,363Jul 31 04:30 PM
EQRATWOOD CHARLES LDirectorJul 30Sale74.4012,303915,2875,993Jul 31 04:28 PM
OMEDGurney AustinSee RemarksJul 30Sale21.097,000147,60149,419Jul 31 04:21 PM
OMEDGurney AustinSee RemarksJul 29Sale20.687,000144,75856,419Jul 31 04:21 PM
MTGEPas AaronSVPJul 30Sale15.803465,46748,453Jul 31 04:18 PM
FLTFreund Charles RichardEVP Corporate StrategyJul 29Sale152.7121,9693,354,9283,038Jul 31 04:17 PM
MANJOERRES JEFFREY AExecutive ChairmanJul 30Sale89.88124,08511,153,2070Jul 31 04:16 PM
STRAGRUSKY ROBERT RDirectorJul 30Sale55.371,50083,0550Jul 31 04:15 PM
UADEERING ANTHONY WDirectorJul 30Sale98.3130,4002,988,71566,234Jul 31 04:14 PM
XRAYMOSCH JAMES GExecutive VP & C.O.O.Jul 30Sale54.9032,9001,806,21033,562Jul 31 04:14 PM
COMMArmstrong Philip Martin JRSVP, Corporate FinanceJul 30Sale30.0430,000901,3268,442Jul 31 04:11 PM
HONMahoney Timothy O.President and CEO, AerospaceJul 30Sale105.592,077219,31044,083Jul 31 04:09 PM
NUVAPowers RussellEVPJul 29Sale52.802,119111,88367,830Jul 31 04:09 PM
ENSGPort BarryVice PresidentJul 29Sale50.991849,38256,260Jul 31 04:09 PM
HONMatteo AdamVice President & ControllerJul 29Sale105.2041944,0794,475Jul 31 04:08 PM
HONJames Mark R.SVP-HR Procur & CommunicationsJul 29Sale105.2855,9975,895,36422,902Jul 31 04:07 PM
HONAdams Katherine L.Sr. VP & General CounselJul 30Sale105.001,153121,06565,048Jul 31 04:07 PM
DPZCantor Diana FDirectorJul 29Sale112.1610,0001,121,57011,010Jul 31 04:05 PM
BNKPemble KathrynEVP, Florida Market PresidentJul 30Sale19.416,215120,6335,000Jul 31 04:05 PM
BNKPemble KathrynEVP, Florida Market PresidentJul 29Sale19.316,200119,72211,215Jul 31 04:05 PM
AKAMGemmell JamesEVP & Chief HR OfficerJul 30Sale72.681,867135,6941,587Jul 31 04:04 PM
CLXSTEIN LAURAEVP - General CounselJul 29Sale112.0042,6984,782,17643,937Jul 31 04:02 PM
SIRIAMBLE JOAN LORDIDirectorJul 30Sale4.0097,750391,0006,410Jul 31 04:02 PM
GSBCTURNER WILLIAM VDirectorJul 30Sale41.7512,000500,945197,556Jul 31 03:44 PM
IEXFINLEY BRETT ESVP - Group ExecutiveJul 29Sale75.466,526492,47724,582Jul 31 03:40 PM
PCCCGALLUP PATRICIAChairman & Chief Admin OfficerJul 30Sale22.143,12569,174571,440Jul 31 03:37 PM
PCCCGALLUP PATRICIAChairman & Chief Admin OfficerJul 29Sale22.223,12569,434574,565Jul 31 03:37 PM
AFLRIMER BARBARA KDirectorJul 29Sale63.913,752239,8067,788Jul 31 03:24 PM
TMKBOREN DAVID LDirectorJul 29Sale60.973,355204,55412,742Jul 31 03:20 PM
MAMasterCard Foundation10% OwnerJul 31Sale98.0411,0811,086,413116,421,346Jul 31 03:13 PM
MAMasterCard Foundation10% OwnerJul 30Sale97.0911,0811,075,843116,432,427Jul 31 03:13 PM
MAMasterCard Foundation10% OwnerJul 29Sale94.8711,0811,051,248116,443,508Jul 31 03:13 PM
GOOGBrin SergeyCo-FounderJul 30Sale644.4833,33221,481,9600Jul 31 03:12 PM
PFGSTRABLE-SOETHOUT DEANNA DPresident - US Ins. SolutionsJul 29Sale55.00221,21039,338Jul 31 02:52 PM
CATHalverson Bradley MGroup President & CFOJul 29Sale77.1111,867915,06412,311Jul 31 02:45 PM
AMRBTABER DAVID TPresident & CEOJul 31Sale10.034,90049,152151,854Jul 31 02:19 PM
SYBTHEINTZMAN DAVID PChairman & CEOJul 30Sale36.902,00073,800103,107Jul 31 02:05 PM
UVSPTurner Michael L.DirectorJul 27Sale20.443006,13235,340Jul 31 02:00 PM
HSKANAPOLITANO JASON AChief Financial OfficerJul 30Sale33.975,534187,96568,098Jul 31 01:59 PM
BCRRING TIMOTHY MChairman and CEOJul 29Sale193.6340,0007,745,099119,710Jul 31 01:52 PM
CSLROBERTS DAVID AChairman & CEOJul 31Sale101.721,148116,77562,774Jul 31 01:47 PM
VRTXSilva Paul MSVP & Corp ControllerJul 30Sale128.96860110,90918,375Jul 31 01:44 PM
EFXAdams J DannPres-Wkfrc SolJul 30Sale101.7580081,40060,180Jul 31 01:43 PM
PFGDunbar Timothy MarkEVP & Chief Investment OfficerJul 30Sale55.008,275455,12541,632Jul 31 01:42 PM
PFGSHAFF KAREN EEVP, Gen'l Counsel, SecretaryJul 30Sale55.2539,1652,163,86683,966Jul 31 01:41 PM
SYKSTRYKER RONDA EDirectorJul 31Sale102.336,000613,9629,234,233Jul 31 01:38 PM
SYKSTRYKER RONDA EDirectorJul 30Sale101.426,000608,4909,240,233Jul 31 01:38 PM
SYKOwen Katherine AnnVP,Strategy&InvestorRelationsJul 29Sale101.675,000508,36913,593Jul 31 01:27 PM
CZNCFISHER JAN EDirectorJul 30Sale19.753797,48514,787Jul 31 01:24 PM
FINLGOLDSMITH STEPHENDirectorJul 30Sale27.508,000220,00029,045Jul 31 12:57 PM
UBSHPEAY D ANTHONYEVPJul 30Sale24.458,880217,12225,699Jul 31 12:39 PM
OCFrancis JulianPresident, InsulationJul 29Sale43.741,42562,33017,151Jul 31 12:34 PM
MASMANOOGIAN RICHARD ADirectorJul 30Sale26.25300,0007,875,8401,314,611Jul 31 12:31 PM
KNDBreier Benjamin APresident & CEOJul 31Sale20.385,400110,036547,840Jul 31 12:22 PM
CHCOHAGEBOECK CHARLES RPresident & CEOJul 30Sale48.006,000288,00171,372Jul 31 12:18 PM
SCHWWALTHER ROGER ODirectorJul 29Sale34.7935,0001,217,703209,348Jul 31 12:17 PM
SCHWSCHWAB CHARLES RChairmanJul 30Sale34.94200,0006,987,360112,092,087Jul 31 12:17 PM
SCHWSCHWAB CHARLES RChairmanJul 29Sale34.82400,00013,926,640112,292,087Jul 31 12:17 PM
TYLYEAMAN JOHN MChairman of the BoardJul 30Sale139.004,000556,000348,576Jul 31 12:15 PM
ZBKLAURSEN THOMAS ESr. Vice President &Jul 30Sale31.404,000125,58336,772Jul 31 12:04 PM
WABWESLEY TIMOTHY RVP - Investor RelationsJul 30Sale101.6810,9421,112,5839,539Jul 31 11:48 AM
WABKASSLING WILLIAM EDirectorJul 30Sale102.2125,0002,555,3131,137,584Jul 31 11:46 AM
WABFOSTER LEE B IIDirectorJul 30Sale101.898,000815,10041,026Jul 31 11:36 AM
BWLDBenning Kathleen MEVP-Global Brand & Bus. Dev.Jul 30Sale195.001,000195,00010,071Jul 31 11:09 AM
BWLDBenning Kathleen MEVP-Global Brand & Bus. Dev.Jul 29Sale191.003,000573,00011,071Jul 31 11:09 AM
BWLDBlock Andrew D.SVP-Talent ManagementJul 29Sale191.001,300248,3003,446Jul 31 11:09 AM
VRTXBOGER JOSHUA SDirectorJul 29Sale126.6810,4001,317,440345,284Jul 31 10:30 AM
IBKRNemser Earl HVice ChairmanJul 30Sale40.991,13746,60695,054Jul 31 10:21 AM
IBKRNemser Earl HVice ChairmanJul 29Sale41.161,30253,59096,191Jul 31 10:21 AM
MKTOAgrawal NeerajDirectorJul 29Sale29.55350,00010,342,5001,665,212Jul 31 10:18 AM
IBKRBrody Paul JonathanChief Financial OfficerJul 30Sale40.9928411,64123,781Jul 31 10:16 AM
IBKRBrody Paul JonathanChief Financial OfficerJul 29Sale41.1632613,41824,065Jul 31 10:16 AM
NBTBWEBB JACK HDirectorJul 29Sale26.9125,000672,84056,916Jul 31 10:11 AM
IBKRFrank Thomas AJChief Information OfficerJul 30Sale40.995,682232,905475,269Jul 31 10:05 AM
IBKRFrank Thomas AJChief Information OfficerJul 29Sale41.166,512268,034480,951Jul 31 10:05 AM
IBKRGalik MilanPresidentJul 30Sale40.995,682232,905475,269Jul 31 09:59 AM
IBKRGalik MilanPresidentJul 29Sale41.166,512268,034480,951Jul 31 09:59 AM
VFCDE BEDOUT JUAN ERNESTODirectorJul 30Sale75.9617,2001,306,57922,767Jul 31 09:49 AM
STLDBATES JOHN CDirectorJul 29Sale20.5863,8881,314,707251,027Jul 31 09:20 AM
STLDBATES JOHN CDirectorJul 29Sale20.40116,2232,371,465314,915Jul 31 09:19 AM
STLDBATES JOHN CDirectorJul 29Sale20.1539,265791,153431,138Jul 31 09:16 AM
LAWSErrant James SDirectorJul 30Sale27.047,417200,55611,924Jul 31 06:45 AM
LAWSErrant James SDirectorJul 29Sale27.016,000162,06019,341Jul 31 06:45 AM
WSavarese JamesChief Operating OfficerJul 29Sale37.277,000260,890658,266Jul 30 09:22 PM
WMacri EdmondSVP, Marketing and AnalyticsJul 28Sale37.3650018,680232,991Jul 30 09:21 PM
ALGNPRESCOTT THOMAS MDirectorJul 29Sale61.73156,7549,676,424125,117Jul 30 09:13 PM
SJMDenman John WVice President, HR OperationsJul 29Sale110.0025027,50015,861Jul 30 09:04 PM
CRMMartinez MariaPres., Sales & Cust. SuccessJul 29Sale73.032,647193,31027,492Jul 30 08:17 PM
CRMMartinez MariaPres., Sales & Cust. SuccessJul 28Sale72.791,32996,73830,139Jul 30 08:17 PM
NMcGeever JamesChief Operating OfficerJul 28Sale97.7235,7073,489,277325,015Jul 30 08:16 PM
NHuffman MarcPresident WW Sales & DistribJul 28Sale97.5210,5191,025,85869,585Jul 30 08:15 PM
GOOGBrin SergeyCo-FounderJul 29Sale642.8633,33221,427,7470Jul 30 08:08 PM
BYDBOUGHNER ROBERT LExecutive Vice PresidentJul 28Sale17.08161,3112,755,531171,131Jul 30 07:19 PM
VEEVSohn Young A10% OwnerJul 29Sale26.932,50067,3130Jul 30 07:12 PM
VEEVSohn Young A10% OwnerJul 29Sale26.9425,000673,4430Jul 30 07:12 PM
VEEVSohn Young A10% OwnerJul 28Sale26.852,50067,1330Jul 30 07:12 PM
VEEVSohn Young A10% OwnerJul 28Sale26.8625,000671,5500Jul 30 07:12 PM
FDPABU-GHAZALEH MOHAMMADChairman and CEOJul 29Sale40.1831,2241,254,5495,403,857Jul 30 07:11 PM
FDPABU-GHAZALEH MOHAMMADChairman and CEOJul 28Sale40.101,20748,4055,403,857Jul 30 07:11 PM
BANFSCHMIDT DARRYLExecutive Vice PresidentJul 28Sale65.00473,0552,500Jul 30 07:01 PM
BXTosi Laurence AChief Financial OfficerJul 28Sale38.7526,1841,014,63049,925Jul 30 06:54 PM
SCHLROBINSON RICHARDCEO, Chairman and PresidentJul 29Sale42.984,004172,0924,494,154Jul 30 06:47 PM
SCHLROBINSON RICHARDCEO, Chairman and PresidentJul 28Sale42.989,396403,8404,494,154Jul 30 06:47 PM
XOXOLIU DAVIDDirectorJul 30Sale14.773,30048,727630,922Jul 30 06:43 PM
XOXOLIU DAVIDDirectorJul 29Sale15.033,30049,601634,222Jul 30 06:43 PM
XOXOLIU DAVIDDirectorJul 28Sale15.083,30049,780637,522Jul 30 06:43 PM
PFPTGARN DOUGLAS FDirectorJul 29Sale64.5518,0001,161,8693,936Jul 30 06:37 PM
PFPTNewell TraceyEVP, Worldwide SalesJul 28Sale65.941,00065,9387,485Jul 30 06:36 PM
PFPTEVAN DANA LDirectorJul 28Sale65.831,50098,7486,692Jul 30 06:35 PM
SCHLDAVIES JOHN LDirectorJul 28Sale43.0030,1991,298,5575,956Jul 30 06:24 PM
CIENMOYLAN JAMES E JRSVP Finance, CFOJul 29Sale25.001,00025,000389,227Jul 30 06:23 PM
COSTRose Timothy L.Executive VPJul 30Sale145.581,415205,99631,503Jul 30 06:22 PM
LLTCZERIO DONALD PVP Finance & CFOJul 30Sale41.073,000123,21153,090Jul 30 06:15 PM
NKEPARKER MARK GPRESIDENT & CEOJul 29Sale113.5834,2053,885,004925,198Jul 30 06:08 PM
NKEPARKER MARK GPRESIDENT & CEOJul 28Sale112.14165,79518,592,733925,198Jul 30 06:08 PM
NKEPliska Bernard F.VP: CORP CONTROLLERJul 29Sale114.3636,0004,117,10811,948Jul 30 06:08 PM
NKEKrane Hilary KEVP, CAO and General CounselJul 29Sale114.0028,8693,291,066104,019Jul 30 06:08 PM
NEOGYEUTTER CLAYTON KDirectorJul 29Sale57.384,500258,230690Jul 30 06:06 PM
YDLEConnors EricSVP ProductsJul 29Sale12.762,10026,7896,610Jul 30 05:59 PM
YDLEConnors EricSVP ProductsJul 28Sale12.922,10027,1296,610Jul 30 05:59 PM
BLKFINK LAURENCEChairman and CEOJul 30Sale339.5335,50012,053,2621,246,930Jul 30 05:56 PM
BLKFINK LAURENCEChairman and CEOJul 29Sale339.09118,85140,300,6241,246,930Jul 30 05:56 PM
BLKFINK LAURENCEChairman and CEOJul 28Sale337.0164,31021,673,1021,246,930Jul 30 05:56 PM
MKTOBALL FREDERICKSVP & Chief Financial OfficerJul 29Sale30.1315,000451,9402,016Jul 30 05:53 PM
ABTBlaser Brian JExecutive Vice PresidentJul 28Sale50.9611,300575,904102,194Jul 30 05:52 PM
PAYBhanot AlokEVP, Engineering & CTOJul 28Sale31.711,70053,90725,900Jul 30 05:52 PM
TKAIMorrison Jodie PopePresident and CEOJul 29Sale13.705647,72719,551Jul 30 05:33 PM
TKAIMorrison Jodie PopePresident and CEOJul 28Sale13.7012,000164,40019,551Jul 30 05:33 PM
ARDXRAAB MICHAELPresident & CEOJul 28Sale20.002,11142,22081,547Jul 30 05:23 PM
HMHCRamsayer Lee RaymondSee remarks.Jul 29Sale25.9720,000519,45255,753Jul 30 05:23 PM
HMHCGentel Gary LeeSee remarks.Jul 29Sale25.9711,000285,66618,959Jul 30 05:20 PM
HMHCColangelo Brook MickeySee remarks.Jul 28Sale25.674,166106,92837,221Jul 30 05:20 PM
HMHCCannon Timothy LonSee remarks.Jul 28Sale25.6715,000385,11312,567Jul 30 05:19 PM
MYCCBurnett Mark AChief Operating OfficerJul 29Sale23.2415,000348,546357,049Jul 30 05:13 PM
RTNClark Vernon EDirectorJul 28Sale105.131,970207,1158,317Jul 30 05:11 PM
NBLCUNNINGHAM SUSAN MExec. VP, EHSR & New FrontiersJul 29Sale35.3816,000566,080158,795Jul 30 05:07 PM
KLACTrafas Brian M.SVP, Global Customer Org.Jul 28Sale50.571356,8270Jul 30 05:06 PM
DNKNEMMETT RICHARD JChief Legal and HR OfficerJul 29Sale54.185,000270,90012,500Jul 30 05:03 PM
DNKNMitchell William MPres, BR US CAN DDBR CH JP KOJul 29Sale54.1243,4812,353,1920Jul 30 05:03 PM
DNKNMurphy ScottSVP, Chief Supply OfficerJul 29Sale54.164,381237,2756,605Jul 30 05:02 PM
DNKNTWOHIG PAUL EPres, US, CAN, EUR, LAT AMJul 29Sale54.0930,0001,622,70014,335Jul 30 05:02 PM
open in screener